Weather History for Osceola Municipal, IA

Change the Weather History Date:

Wednesday, May 15, 2013

  Actual Average (KLWD) Record (KLWD)
Temperature  
Mean Temperature 69 °F 61 °F  
Max Temperature 80 °F 71 °F 84 °F (1964)
Min Temperature 58 °F 51 °F 37 °F (2005)
Degree Days  
Heating Degree Days 0 6  
Month to date heating degree days 108  
Since 1 July heating degree days 6003  
Cooling Degree Days 4 1  
Month to date cooling degree days 11  
Year to date cooling degree days 18  
Growing Degree Days 19 (Base 50)    
Moisture  
Dew Point 45 °F    
Average Humidity 43    
Maximum Humidity 76    
Minimum Humidity 22    
Precipitation  
Precipitation 0.00 in 0.16 in 1.34 in (1977)
Month to date precipitation 2.46  
Sea Level Pressure  
Sea Level Pressure 29.86 in    
Wind  
Wind Speed 7 mph (NE)    
Max Wind Speed 13 mph    
Max Gust Speed 20 mph    
Visibility 10 miles    
Events      
T = Trace of Precipitation, MM = Missing Value Source: NWS Daily Summary

Daily Weather History Graph

Daily Weather History Graph

Search for Another Location

Airport:

Trip Planner

Search our weather history database for the weather conditions in past years. The results will help you decide how hot, cold, wet, or windy it might be!

Date:

Astronomy

May. 15, 2013 Rise Set
Actual Time 5:56 AM CDT 8:26 PM CDT
Civil Twilight 5:25 AM CDT 8:57 PM CDT
Nautical Twilight 4:46 AM CDT 9:36 PM CDT
Astronomical Twilight 4:02 AM CDT 10:20 PM CDT
Moon 10:33 AM CDT (5/15) 12:12 AM CDT (5/15)
Length of Visible Light 15h 32m
Length of Day
14h 29m
Waxing Crescent, 27% of the Moon is Illuminated
May 15
Waxing Crescent
May 17
First Quarter
May 24
Full
May 31
Last Quarter
Jun 8
New

Hourly Weather History & Observations

Time (CDT) Temp. Dew Point Humidity Pressure Visibility Wind Dir Wind Speed Gust Speed Precip Events Conditions
12:15 AM 72.9 °F 48.7 °F 42% 29.77 in 10.0 mi SW 12.7 mph - N/A   Clear
12:35 AM 71.2 °F 49.3 °F 46% 29.79 in 10.0 mi WSW 6.9 mph - N/A   Clear
12:55 AM 69.3 °F 49.8 °F 50% 29.79 in 10.0 mi WSW 5.8 mph - N/A   Clear
1:15 AM 68.0 °F 50.0 °F 52% 29.81 in 10.0 mi SW 6.9 mph - N/A   Clear
1:35 AM 66.0 °F 50.4 °F 57% 29.81 in 10.0 mi Calm Calm - N/A   Clear
1:55 AM 64.9 °F 50.0 °F 58% 29.81 in 10.0 mi South 5.8 mph - N/A   Clear
2:15 AM 66.4 °F 49.8 °F 55% 29.81 in 10.0 mi South 5.8 mph - N/A   Clear
2:35 AM 67.5 °F 50.0 °F 53% 29.81 in 10.0 mi South 8.1 mph - N/A   Clear
2:55 AM 68.2 °F 50.0 °F 52% 29.81 in 10.0 mi South 9.2 mph - N/A   Clear
3:15 AM 67.3 °F 50.4 °F 55% 29.81 in 10.0 mi South 9.2 mph - N/A   Clear
3:35 AM 66.9 °F 50.5 °F 56% 29.81 in 10.0 mi South 5.8 mph - N/A   Clear
3:55 AM 66.2 °F 50.4 °F 57% 29.81 in 10.0 mi South 4.6 mph - N/A   Clear
4:15 AM 65.3 °F 50.4 °F 58% 29.81 in 10.0 mi Calm Calm - N/A   Clear
4:35 AM 61.2 °F 50.9 °F 69% 29.82 in 10.0 mi Calm Calm - N/A   Clear
4:55 AM 59.9 °F 50.9 °F 72% 29.83 in 10.0 mi Calm Calm - N/A   Clear
5:15 AM 59.7 °F 50.9 °F 73% 29.83 in 10.0 mi Calm Calm - N/A   Clear
5:35 AM 59.2 °F 50.9 °F 74% 29.83 in 10.0 mi Calm Calm - N/A   Clear
5:55 AM 58.5 °F 50.9 °F 76% 29.83 in 10.0 mi Calm Calm - N/A   Clear
6:15 AM 59.9 °F 50.4 °F 71% 29.84 in 10.0 mi NNW 6.9 mph - N/A   Clear
6:35 AM 60.8 °F 47.1 °F 61% 29.85 in 10.0 mi North 8.1 mph - N/A   Clear
6:55 AM 62.4 °F 46.8 °F 57% 29.86 in 10.0 mi North 6.9 mph - N/A   Clear
7:15 AM 63.5 °F 46.8 °F 54% 29.87 in 10.0 mi NNW 8.1 mph - N/A   Clear
7:35 AM 64.4 °F 45.9 °F 51% 29.89 in 10.0 mi NNW 12.7 mph - N/A   Clear
7:55 AM 65.5 °F 45.1 °F 48% 29.89 in 10.0 mi North 11.5 mph - N/A   Clear
8:15 AM 66.4 °F 46.0 °F 48% 29.89 in 10.0 mi North 11.5 mph - N/A   Clear
8:35 AM 66.7 °F 45.5 °F 46% 29.89 in 10.0 mi North 11.5 mph 19.6 mph N/A   Clear
8:55 AM 68.0 °F 46.0 °F 45% 29.88 in 10.0 mi North 10.4 mph - N/A   Clear
9:15 AM 68.7 °F 46.2 °F 44% 29.89 in 10.0 mi NE 10.4 mph - N/A   Clear
9:35 AM 69.8 °F 46.0 °F 43% 29.90 in 10.0 mi NNE 8.1 mph - N/A   Clear
9:55 AM 70.9 °F 46.9 °F 42% 29.91 in 10.0 mi NNE 5.8 mph - N/A   Clear
10:15 AM 71.4 °F 45.9 °F 40% 29.91 in 10.0 mi NNE 9.2 mph - N/A   Clear
10:35 AM 70.7 °F 46.0 °F 41% 29.91 in 10.0 mi North 10.4 mph - N/A   Clear
10:55 AM 70.7 °F 46.8 °F 42% 29.92 in 10.0 mi NNW 10.4 mph 16.1 mph N/A   Clear
11:15 AM 71.4 °F 46.6 °F 41% 29.93 in 10.0 mi North 10.4 mph - N/A   Clear
11:35 AM 72.3 °F 47.1 °F 41% 29.92 in 10.0 mi North 11.5 mph 18.4 mph N/A   Clear
11:55 AM 72.0 °F 46.0 °F 40% 29.92 in 10.0 mi NNE 11.5 mph 17.3 mph N/A   Clear
12:15 PM 72.7 °F 46.4 °F 39% 29.92 in 10.0 mi NNE 10.4 mph 17.3 mph N/A   Clear
12:35 PM 73.9 °F 45.9 °F 37% 29.92 in 10.0 mi NNE 10.4 mph - N/A   Clear
12:55 PM 74.3 °F 45.1 °F 35% 29.91 in 10.0 mi NNE 9.2 mph - N/A   Clear
1:15 PM 74.3 °F 45.5 °F 36% 29.91 in 10.0 mi NNE 10.4 mph - N/A   Clear
1:35 PM 75.6 °F 44.1 °F 32% 29.91 in 10.0 mi NE 8.1 mph 16.1 mph N/A   Clear
1:55 PM 77.0 °F 43.3 °F 30% 29.91 in 10.0 mi NE 11.5 mph - N/A   Clear
2:15 PM 77.7 °F 42.1 °F 28% 29.91 in 10.0 mi NNE 12.7 mph 16.1 mph N/A   Clear
2:35 PM 77.9 °F 40.3 °F 26% 29.89 in 10.0 mi NE 10.4 mph 18.4 mph N/A   Clear
2:55 PM 79.0 °F 40.5 °F 25% 29.89 in 10.0 mi ENE 10.4 mph 17.3 mph N/A   Clear
3:15 PM 79.3 °F 38.1 °F 23% 29.87 in 10.0 mi ENE 11.5 mph 16.1 mph N/A   Clear
3:35 PM 80.2 °F 40.1 °F 24% 29.86 in 10.0 mi East 11.5 mph 16.1 mph N/A   Clear
3:55 PM 79.9 °F 41.7 °F 26% 29.86 in 10.0 mi East 11.5 mph - N/A   Clear
4:15 PM 79.5 °F 40.1 °F 24% 29.86 in 10.0 mi East 11.5 mph - N/A   Clear
4:35 PM 79.2 °F 39.4 °F 24% 29.86 in 10.0 mi East 10.4 mph - N/A   Clear
4:55 PM 79.0 °F 36.9 °F 22% 29.86 in 10.0 mi East 9.2 mph - N/A   Clear
5:15 PM 79.3 °F 38.7 °F 23% 29.86 in 10.0 mi East 4.6 mph - N/A   Clear
5:35 PM 78.4 °F 39.4 °F 25% 29.86 in 10.0 mi East 4.6 mph - N/A   Clear
5:55 PM 79.5 °F 39.0 °F 23% 29.86 in 10.0 mi East 6.9 mph - N/A   Clear
6:15 PM 79.2 °F 40.6 °F 25% 29.85 in 10.0 mi East 6.9 mph - N/A   Clear
6:35 PM 78.6 °F 40.5 °F 26% 29.86 in 10.0 mi ENE 5.8 mph - N/A   Clear
6:55 PM 78.6 °F 39.6 °F 25% 29.86 in 10.0 mi ENE 5.8 mph - N/A   Clear
7:15 PM 77.2 °F 40.1 °F 26% 29.86 in 10.0 mi NE 5.8 mph - N/A   Clear
7:35 PM 75.0 °F 44.1 °F 33% 29.85 in 10.0 mi NE 6.9 mph - N/A   Clear
7:55 PM 73.4 °F 45.9 °F 37% 29.85 in 10.0 mi NE 6.9 mph - N/A   Clear
8:15 PM 71.2 °F 46.4 °F 41% 29.84 in 10.0 mi NE 5.8 mph - N/A   Clear
8:35 PM 70.9 °F 44.2 °F 38% 29.84 in 10.0 mi ENE 3.5 mph - N/A   Clear
8:55 PM 67.8 °F 46.4 °F 46% 29.84 in 10.0 mi NE 5.8 mph - N/A   Clear
9:15 PM 68.2 °F 45.7 °F 44% 29.84 in 10.0 mi ENE 3.5 mph - N/A   Clear
9:35 PM 67.5 °F 46.4 °F 47% 29.85 in 10.0 mi ENE 3.5 mph - N/A   Clear
9:55 PM 67.1 °F 45.0 °F 45% 29.86 in 10.0 mi ENE 4.6 mph - N/A   Clear
10:15 PM 66.6 °F 44.6 °F 45% 29.86 in 10.0 mi ENE 3.5 mph - N/A   Scattered Clouds
10:35 PM 67.1 °F 45.0 °F 45% 29.86 in 10.0 mi East 3.5 mph - N/A   Mostly Cloudy
10:55 PM 66.0 °F 46.0 °F 48% 29.86 in 10.0 mi ESE 4.6 mph - N/A   Mostly Cloudy
11:15 PM 66.7 °F 44.6 °F 45% 29.86 in 10.0 mi East 3.5 mph - N/A   Mostly Cloudy
11:35 PM 68.7 °F 41.0 °F 36% 29.86 in 10.0 mi SE 8.1 mph - N/A   Mostly Cloudy
11:55 PM 70.3 °F 40.3 °F 34% 29.86 in 10.0 mi SE 8.1 mph - N/A   Overcast